Wetbulb
48.55 46.18 43.32 44.47 46.46 47.51 46.00 43.57 44.85 47.76 50.90 51.60 50.34 50.12 53.06 55.11 62.43 61.95 61.63 62.13 61.37 61.70 64.85 68.17 69.73 70.65 70.31 70.47 70.09 71.04 71.16 70.29 70.72 69.74 68.81 69.35 69.71 70.32 71.50 72.17 72.58 72.34 72.14 72.57
46.31 43.31 47.37 49.23 48.42 46.95 45.20 44.09 44.69 47.72 50.67 49.12 48.20 48.79 51.24 51.98 58.61 62.61 62.66 62.93 63.47 63.53 64.48 66.39 68.22 69.51 69.95 70.06 70.50 70.44 70.92 70.25 70.83 71.06 69.42 69.84 69.40 69.63 71.10 71.53 71.75 72.56 72.42 72.73
43.74 47.08 50.96 48.65 46.30 45.28 43.91 41.77 43.19 44.70 47.71 48.38 47.42 45.52 48.67 51.74 54.37 55.68 60.65 62.57 64.52 64.71 64.43 65.78 66.98 68.00 69.84 69.74 70.41 70.34 70.38 70.62 70.93 70.95 69.76 68.72 69.53 69.26 69.66 70.51 71.24 71.99 71.99 72.35
45.56 48.98 48.70 45.82 45.47 44.93 41.01 46.43 46.48 47.17 43.23 40.52 45.59 38.70 44.75 48.31 51.50 53.86 56.10 58.09 59.82 63.38 65.10 65.13 66.10 67.20 69.16 69.71 70.93 70.94 70.48 70.77 71.08 70.83 69.82 68.60 67.71 67.30 68.15 69.25 70.48 71.19 72.14 71.74
46.15 46.29 45.86 44.75 46.59 46.69 45.42 49.18 48.10 47.66 42.00 40.09 43.14 40.12 43.63 48.50 48.60 51.33 53.62 58.06 59.15 61.46 63.41 64.32 65.97 67.66 69.17 70.35 70.31 70.78 70.18 70.63 71.29 70.91 70.60 69.38 67.75 68.47 68.27 69.33 69.59 70.39 70.66 70.97
46.69 48.76 47.79 47.28 49.04 48.80 49.19 46.77 44.96 42.68 40.43 37.56 39.23 40.69 42.45 48.50 50.41 51.50 56.01 60.22 60.49 60.79 62.72 64.57 66.37 67.75 67.93 69.39 69.85 70.17 69.51 69.97 70.56 70.91 70.76 69.90 68.77 68.00 67.71 67.78 68.41 69.15 69.85 70.12
44.20 45.44 47.33 48.94 44.63 46.89 45.72 41.00 36.32 37.38 36.24 37.02 36.74 41.26 44.70 52.09 56.17 56.62 58.67 60.32 58.84 62.04 62.11 64.09 65.16 65.91 67.51 68.20 69.42 69.54 69.22 68.74 70.11 70.55 70.52 70.48 69.89 69.25 68.58 68.29 68.29 68.34 69.08 69.40
38.91 42.14 47.13 49.03 46.40 44.84 43.02 41.89 37.34 33.14 34.03 36.61 39.86 38.55 45.19 56.65 58.35 59.65 61.60 61.20 61.88 61.96 63.89 65.04 66.27 67.19 67.90 68.72 69.08 69.76 68.93 63.74 65.82 70.24 70.48 70.85 70.82 69.90 69.71 69.44 69.53 68.99 69.26 69.82
38.64 42.45 50.22 51.45 49.42 47.56 43.10 40.83 42.33 37.46 34.90 36.31 39.41 45.55 51.33 57.47 57.89 59.55 60.66 61.84 62.20 63.88 64.61 65.25 66.65 67.69 64.19 68.66 68.94 69.44 68.05 66.35 68.11 70.14 70.83 70.40 70.58 70.13 69.86 70.02 70.36 69.92 69.98 69.98
43.24 41.61 46.45 50.48 49.90 49.74 46.61 46.03 40.65 38.29 34.58 33.52 38.20 40.91 42.35 52.89 55.56 57.87 59.20 61.20 62.20 63.73 63.13 61.82 63.23 63.47 65.90 67.57 68.69 69.93 69.94 69.72 69.68 70.13 70.95 70.79 70.53 70.62 70.31 69.89 69.73 70.03 70.19 69.87
44.68 44.12 44.78 46.65 44.21 42.18 44.11 41.80 39.45 38.97 37.48 35.50 34.41 40.01 47.47 54.32 56.33 56.61 58.52 60.83 62.59 63.57 63.28 63.69 63.60 65.14 66.20 66.49 68.36 69.55 70.24 69.86 69.95 70.37 70.86 71.04 70.49 70.40 70.23 69.93 70.33 70.18 70.68 70.59
45.68 42.31 40.47 42.61 46.73 46.31 43.88 41.30 39.28 37.34 36.04 35.76 36.59 39.78 52.32 56.73 57.35 56.95 57.29 60.99 62.77 62.76 61.71 62.26 62.90 63.36 63.26 64.81 65.17 65.54 67.59 71.12 71.24 71.72 71.70 71.42 70.82 70.58 70.05 69.80 70.05 71.08 70.43 70.70
47.01 40.98 38.64 40.32 43.53 45.01 43.50 43.04 39.00 37.81 36.37 35.58 34.79 38.42 52.18 53.62 54.20 56.22 57.15 60.27 61.79 62.04 61.94 61.24 60.91 61.22 62.39 62.43 62.97 63.89 64.37 66.32 71.65 71.86 72.04 71.32 71.07 70.78 69.89 69.64 69.64 70.93 71.36 70.39
51.48 39.86 41.09 39.43 40.16 42.17 41.39 43.93 41.69 39.17 36.12 35.46 37.31 40.83 44.51 51.02 51.64 54.19 58.21 60.38 61.46 61.28 61.16 60.83 61.11 62.03 62.55 62.81 63.40 64.65 65.41 65.56 68.40 72.50 67.82 66.03 69.12 71.02 71.00 69.71 69.32 69.63 70.58 70.76
45.85 40.96 41.24 40.45 43.24 43.60 43.73 44.28 43.99 41.00 40.09 39.10 41.16 40.13 48.30 52.38 53.77 52.53 58.32 59.19 60.03 60.85 61.02 60.58 60.28 60.60 61.33 62.92 63.84 65.31 67.09 66.39 66.94 71.01 67.05 63.71 69.10 71.48 70.61 69.78 69.19 69.46 69.41 70.05
42.32 40.46 40.29 39.66 44.27 43.90 42.42 44.27 43.94 43.68 44.96 43.43 44.64 47.17 52.83 53.64 54.75 54.62 55.47 56.27 56.43 56.83 58.19 58.44 60.41 60.96 60.22 60.83 61.09 65.52 65.14 67.32 67.48 68.56 70.16 70.10 71.71 71.15 71.03 71.17 70.12 69.32 69.14 69.14
42.22 39.54 37.49 35.54 39.65 41.21 37.88 41.39 44.21 46.56 47.20 46.50 44.32 47.74 53.29 51.18 52.04 52.36 52.98 54.44 54.92 55.35 56.06 56.54 57.51 57.88 57.49 57.93 59.99 61.42 64.17 65.58 68.11 69.28 70.30 71.41 72.11 71.08 70.70 71.21 70.85 69.93 69.69 69.48
38.89 36.94 35.38 33.73 35.77 31.32 39.72 48.17 48.81 47.19 47.84 48.74 48.02 49.07 51.12 52.51 53.69 53.92 54.47 53.99 54.39 55.22 55.30 55.44 56.01 55.53 55.80 56.45 56.82 60.14 61.02 61.37 66.54 66.52 68.51 70.39 71.33 71.00 70.81 70.71 70.41 70.99 70.03 69.64
39.00 37.58 34.33 33.79 32.45 36.85 44.12 47.11 46.41 43.63 45.04 49.43 47.95 49.87 50.99 51.51 53.13 52.80 54.64 54.84 54.98 55.14 55.66 56.14 56.61 57.02 56.96 56.58 55.43 57.36 58.36 60.31 63.79 65.24 66.92 68.73 70.16 70.59 70.97 70.21 70.23 70.23 70.51 69.71
40.93 38.34 37.47 34.18 33.17 33.09 40.58 47.94 50.09 48.76 40.22 49.06 49.87 49.27 49.07 49.43 44.42 47.79 53.68 54.84 54.77 55.43 55.68 55.37 56.86 57.06 56.36 55.85 55.37 56.67 57.05 57.78 58.74 61.81 65.47 68.69 69.26 69.86 70.36 71.24 70.77 70.41 70.32 70.82
37.19 36.88 36.74 36.17 34.99 39.71 46.53 49.22 50.44 41.30 40.37 49.28 50.22 49.75 49.66 47.34 48.36 51.07 52.79 53.06 53.59 53.89 54.55 55.39 54.86 54.42 55.10 55.34 55.05 55.21 56.45 56.45 58.50 60.74 64.79 67.91 68.31 67.57 69.07 70.70 71.83 70.63 70.16 70.21
36.78 35.76 35.69 35.18 33.72 34.04 48.99 47.98 42.82 44.64 47.32 49.13 49.41 49.67 49.09 49.81 50.75 51.58 52.06 52.29 53.13 53.25 53.93 54.70 53.34 53.88 55.34 55.35 54.72 54.94 54.86 57.14 58.76 60.84 62.33 65.63 67.30 66.52 68.24 68.81 70.46 71.02 70.19 69.58
37.21 40.33 38.40 39.71 38.71 44.74 47.95 47.17 49.02 48.63 47.84 48.72 48.74 49.79 49.73 49.56 50.01 51.34 51.58 52.47 53.13 53.37 53.89 54.46 53.14 53.76 54.71 55.30 55.05 54.21 55.55 57.65 59.16 60.37 61.90 65.14 66.25 65.81 66.79 66.96 67.51 69.29 69.33 68.90
41.40 43.74 40.84 41.26 42.77 46.77 48.50 49.26 50.71 50.98 49.94 50.66 51.01 51.00 51.29 50.41 51.77 51.73 52.51 53.26 53.69 54.32 53.76 53.78 53.51 53.34 53.75 55.23 55.50 55.27 56.23 58.01 59.50 58.79 59.91 62.98 64.07 64.02 65.19 67.34 68.47 68.11 68.18 68.54
42.43 43.34 41.20 40.35 43.36 45.37 47.60 48.89 50.45 51.30 51.17 51.20 52.06 51.83 51.79 51.99 51.93 52.52 52.56 53.17 53.61 53.82 54.38 54.90 54.46 54.05 54.09 55.27 54.86 55.58 56.90 58.31 57.82 57.94 58.64 59.91 62.18 63.59 63.97 66.04 64.74 63.39 68.20 67.57
44.51 42.66 40.81 39.89 44.48 45.02 46.42 49.49 50.92 49.93 50.16 51.39 51.06 51.38 52.71 52.89 52.28 53.21 52.80 53.68 53.67 53.64 54.38 54.16 54.62 53.88 54.32 55.05 55.16 55.96 57.37 57.79 56.78 56.57 57.54 58.46 60.73 62.67 63.16 65.09 64.52 54.94 53.49 52.95
MSLP
1007.77 1008.56 1008.59 1008.93 1009.01 1008.84 1008.78 1008.69 1008.27 1006.92 1006.20 1005.90 1006.04 1006.23 1005.30 1005.81 1006.53 1006.95 1007.22 1007.61 1007.75 1007.41 1007.53 1008.48 1008.72 1009.45 1010.02 1010.65 1011.90 1011.97 1012.59 1013.38 1013.94 1014.54 1015.12 1015.31 1015.18 1015.13 1015.26 1015.26 1015.47 1015.78 1016.03 1016.29
1008.41 1008.44 1008.35 1008.27 1008.31 1008.49 1008.65 1008.60 1007.80 1006.57 1006.32 1005.98 1006.16 1006.27 1005.31 1005.54 1005.58 1005.40 1005.91 1006.74 1006.78 1007.25 1007.57 1007.89 1008.21 1008.44 1009.69 1011.09 1010.50 1010.72 1011.61 1012.60 1013.23 1013.64 1014.09 1014.43 1014.67 1014.75 1014.74 1014.96 1015.24 1015.38 1015.70 1015.86
1008.45 1008.03 1007.77 1007.67 1007.75 1008.08 1008.21 1008.07 1007.48 1007.13 1006.58 1006.49 1006.62 1006.49 1005.77 1005.39 1005.42 1005.20 1005.51 1005.89 1006.30 1006.27 1006.73 1007.22 1007.56 1007.92 1009.56 1009.85 1010.89 1011.15 1011.42 1012.17 1012.78 1013.03 1013.45 1014.04 1014.47 1014.61 1014.80 1015.00 1015.09 1015.20 1015.51 1015.63
1008.15 1007.64 1007.45 1007.36 1007.39 1007.43 1007.50 1006.80 1007.12 1007.26 1007.62 1007.82 1007.73 1008.01 1006.67 1006.31 1005.74 1005.48 1005.35 1005.65 1005.91 1006.12 1006.40 1006.83 1007.11 1007.68 1008.23 1008.94 1009.73 1010.13 1010.89 1011.74 1012.64 1012.98 1013.18 1013.19 1013.52 1014.20 1014.43 1014.60 1014.82 1015.04 1015.18 1015.46
1007.80 1007.32 1007.14 1007.08 1006.72 1006.82 1007.00 1006.90 1007.42 1007.69 1008.36 1008.75 1008.89 1009.08 1007.71 1006.97 1006.64 1005.94 1005.76 1005.34 1005.34 1005.55 1005.90 1006.32 1006.63 1007.05 1008.25 1008.90 1009.59 1010.28 1011.09 1011.79 1012.33 1012.72 1012.97 1013.15 1013.21 1013.40 1013.99 1014.48 1014.73 1014.90 1015.16 1015.29
1007.71 1006.94 1006.81 1006.15 1005.80 1006.23 1006.56 1007.31 1008.19 1009.02 1009.55 1010.12 1010.08 1010.04 1009.40 1008.94 1008.62 1007.08 1006.15 1005.84 1005.40 1005.65 1006.10 1006.44 1006.83 1007.72 1008.55 1009.27 1010.17 1010.55 1011.01 1011.39 1011.63 1012.31 1012.79 1012.93 1013.09 1013.20 1013.71 1014.19 1014.52 1014.73 1014.86 1015.06
1007.55 1006.72 1006.09 1005.77 1005.91 1006.36 1007.09 1008.56 1009.67 1010.71 1011.37 1011.41 1010.81 1010.53 1009.85 1008.94 1008.45 1008.13 1007.45 1006.42 1005.45 1005.60 1006.09 1006.64 1007.29 1008.40 1009.22 1009.98 1010.32 1010.59 1011.22 1011.79 1012.34 1012.23 1012.32 1012.71 1012.86 1013.09 1013.19 1013.53 1013.91 1014.36 1014.58 1014.72
1008.10 1006.96 1006.10 1005.72 1005.79 1006.47 1007.71 1008.92 1010.61 1011.82 1012.78 1012.14 1011.10 1010.71 1009.57 1009.12 1008.74 1008.25 1007.62 1007.23 1006.66 1006.72 1007.35 1007.97 1008.21 1008.39 1008.75 1008.90 1009.34 1009.97 1010.23 1009.42 1009.62 1011.63 1011.81 1012.30 1012.61 1012.81 1012.86 1013.06 1013.41 1013.71 1014.05 1014.16
1008.18 1007.28 1006.32 1005.97 1005.97 1006.54 1008.10 1009.42 1010.53 1011.91 1013.06 1012.92 1011.70 1010.65 1009.88 1009.37 1009.06 1008.74 1008.15 1007.62 1007.55 1007.83 1007.80 1007.85 1008.06 1007.33 1005.79 1007.44 1007.85 1008.83 1009.70 1008.89 1010.86 1011.65 1011.16 1012.03 1012.40 1012.57 1012.55 1012.68 1013.03 1013.35 1013.71 1013.89
1007.98 1007.91 1007.20 1006.64 1006.61 1007.02 1007.77 1009.50 1010.88 1012.31 1013.42 1013.51 1012.25 1011.28 1010.28 1009.87 1009.64 1009.29 1008.66 1008.32 1008.32 1008.16 1008.14 1007.90 1007.89 1007.97 1008.01 1009.13 1009.44 1009.02 1009.08 1009.71 1011.04 1011.06 1010.99 1011.26 1011.28 1011.87 1012.12 1012.36 1012.55 1012.95 1013.26 1013.67
1008.11 1008.59 1008.50 1007.85 1008.41 1008.78 1009.17 1010.11 1011.63 1013.05 1013.83 1013.86 1013.17 1011.58 1010.03 1009.99 1009.89 1009.79 1009.41 1008.90 1008.78 1008.68 1008.49 1008.19 1008.47 1008.94 1009.01 1009.16 1009.54 1009.85 1009.66 1009.60 1009.81 1010.61 1010.81 1011.01 1010.71 1010.98 1011.74 1012.29 1012.13 1012.49 1012.86 1013.12
1008.54 1009.32 1009.75 1009.68 1009.46 1009.40 1009.56 1010.67 1011.83 1013.54 1014.45 1014.43 1013.71 1011.72 1010.41 1010.38 1010.28 1010.19 1010.05 1009.80 1009.52 1008.88 1008.97 1009.32 1009.62 1009.40 1009.14 1009.35 1009.55 1009.51 1009.51 1009.51 1009.74 1009.44 1009.76 1010.25 1010.45 1010.69 1011.04 1011.97 1011.93 1012.16 1012.36 1012.57
1008.61 1009.85 1010.50 1010.45 1010.37 1009.85 1010.16 1010.72 1011.67 1013.13 1014.05 1014.56 1014.17 1012.20 1011.32 1011.05 1010.75 1010.46 1010.54 1010.58 1010.50 1010.28 1009.99 1010.02 1010.23 1010.28 1010.11 1009.95 1009.73 1009.54 1009.08 1009.53 1009.06 1008.59 1009.55 1010.03 1010.08 1010.26 1010.83 1011.31 1011.47 1011.47 1011.93 1011.99
1008.72 1010.66 1010.94 1010.99 1010.72 1010.57 1010.84 1011.00 1011.55 1012.62 1014.01 1014.50 1013.91 1012.76 1011.93 1012.31 1011.65 1010.97 1010.93 1011.18 1011.13 1011.04 1010.75 1010.65 1010.67 1010.63 1010.39 1010.30 1010.35 1009.94 1009.18 1008.94 1009.34 1008.85 1009.19 1009.39 1010.05 1010.28 1010.13 1010.60 1011.06 1010.96 1011.38 1011.77
1009.81 1011.25 1011.45 1011.26 1011.05 1010.88 1010.92 1011.20 1011.70 1012.39 1012.84 1013.46 1013.14 1013.20 1012.84 1012.84 1012.27 1011.90 1011.67 1011.73 1011.76 1011.63 1011.41 1011.31 1011.23 1011.05 1010.98 1010.99 1010.60 1010.21 1009.78 1009.14 1008.95 1008.87 1007.79 1007.94 1009.16 1009.39 1009.54 1009.62 1010.15 1010.30 1010.54 1010.92
1011.15 1012.06 1012.28 1012.18 1011.61 1011.51 1011.53 1011.46 1011.72 1012.21 1012.64 1012.95 1013.15 1013.30 1013.24 1013.13 1012.78 1012.60 1012.71 1012.64 1012.78 1012.70 1012.48 1012.13 1011.92 1011.69 1011.28 1010.90 1010.54 1010.36 1010.23 1009.73 1009.10 1009.41 1009.32 1009.23 1009.00 1009.13 1008.88 1008.90 1009.29 1009.70 1009.91 1010.18
1012.05 1012.79 1013.69 1013.44 1012.84 1012.49 1012.42 1011.85 1011.87 1012.26 1012.73 1013.10 1013.44 1013.57 1013.63 1013.82 1013.71 1013.79 1013.68 1013.49 1013.54 1013.49 1013.19 1012.69 1012.26 1011.95 1011.32 1010.96 1010.70 1010.45 1010.19 1009.99 1009.84 1009.54 1009.50 1009.03 1008.57 1008.22 1008.32 1008.29 1008.39 1008.85 1009.17 1009.48
1012.89 1013.73 1014.21 1014.63 1014.00 1013.75 1012.69 1012.08 1012.01 1012.51 1013.06 1013.24 1013.43 1013.77 1014.09 1014.27 1014.42 1014.39 1014.18 1014.08 1013.98 1013.74 1013.36 1013.02 1012.38 1011.53 1010.99 1010.68 1010.35 1010.09 1009.81 1009.62 1009.79 1009.75 1009.12 1008.77 1008.44 1008.10 1007.84 1007.86 1008.00 1007.90 1008.18 1008.37
1013.18 1014.26 1015.37 1015.60 1015.07 1014.43 1013.32 1012.81 1012.93 1013.15 1013.52 1013.75 1014.08 1014.29 1014.40 1014.42 1014.46 1014.50 1014.22 1013.90 1013.62 1013.38 1012.98 1012.66 1012.34 1011.68 1011.01 1010.71 1010.32 1010.20 1009.93 1009.76 1009.52 1009.37 1009.11 1008.51 1008.04 1007.65 1007.59 1007.54 1007.63 1007.19 1007.65 1007.59
1014.08 1014.34 1015.15 1016.10 1015.61 1014.76 1013.77 1013.22 1013.10 1013.33 1014.04 1014.24 1014.31 1014.49 1014.68 1014.66 1014.81 1014.41 1013.82 1013.82 1013.69 1013.34 1012.98 1012.51 1012.14 1011.88 1011.47 1010.68 1010.44 1010.18 1009.75 1009.48 1008.99 1008.80 1008.49 1008.22 1008.04 1007.66 1007.22 1007.06 1006.82 1006.76 1006.99 1006.90
1014.99 1015.57 1015.98 1016.15 1015.68 1014.90 1014.07 1013.73 1013.51 1014.32 1014.97 1014.56 1014.66 1014.77 1014.83 1014.96 1014.48 1013.76 1013.66 1013.42 1013.24 1012.85 1012.53 1012.12 1011.81 1011.49 1010.94 1010.41 1010.30 1010.19 1009.84 1009.41 1008.88 1008.40 1008.11 1007.82 1007.51 1007.32 1006.85 1006.46 1006.25 1006.37 1006.33 1006.36
1015.74 1016.19 1016.50 1016.58 1016.00 1015.17 1014.20 1013.82 1014.23 1014.75 1014.66 1014.60 1014.61 1014.55 1014.53 1014.24 1013.76 1013.35 1013.07 1012.71 1012.31 1011.90 1011.63 1011.36 1010.97 1010.52 1010.04 1009.81 1009.74 1009.40 1009.20 1008.73 1008.52 1008.34 1007.95 1007.42 1006.99 1006.82 1006.52 1006.30 1005.88 1006.11 1006.21 1006.04
1015.97 1016.03 1016.22 1016.46 1015.92 1015.12 1014.71 1014.62 1014.49 1014.68 1014.69 1014.52 1014.42 1014.09 1013.96 1013.63 1013.19 1012.66 1012.08 1011.69 1011.32 1010.96 1010.61 1010.35 1010.07 1009.76 1009.47 1009.17 1008.87 1008.76 1008.33 1008.22 1007.98 1007.79 1007.60 1007.14 1006.73 1006.40 1006.11 1006.08 1005.72 1005.92 1005.80 1005.50
1015.81 1015.86 1016.20 1016.19 1015.74 1015.26 1014.89 1014.77 1014.61 1014.45 1014.51 1014.01 1013.73 1013.47 1013.16 1012.71 1012.22 1011.72 1011.33 1010.83 1010.40 1010.04 1009.80 1009.63 1009.29 1008.99 1008.63 1008.32 1007.98 1007.78 1007.69 1007.68 1007.69 1007.54 1007.18 1006.87 1006.53 1006.16 1005.93 1005.76 1005.66 1005.74 1005.50 1005.07
1016.16 1016.03 1016.27 1016.28 1015.50 1015.23 1014.67 1014.52 1014.19 1013.97 1013.78 1013.52 1013.02 1012.63 1012.15 1011.68 1011.19 1010.77 1010.36 1009.80 1009.44 1009.17 1008.90 1008.70 1008.44 1008.06 1007.72 1007.39 1007.25 1006.96 1006.87 1006.90 1006.99 1006.93 1006.74 1006.46 1006.17 1005.79 1005.64 1005.39 1005.21 1005.32 1004.88 1004.55
1016.03 1015.80 1015.99 1015.77 1015.09 1015.05 1014.61 1013.91 1013.72 1013.73 1013.19 1012.61 1012.19 1011.52 1010.94 1010.70 1010.12 1009.72 1009.31 1008.82 1008.63 1008.20 1007.92 1007.71 1007.52 1007.25 1006.86 1006.56 1006.29 1006.12 1006.00 1006.01 1006.06 1006.05 1006.10 1005.95 1005.63 1005.26 1005.09 1004.84 1004.56 1004.59 1004.42 1004.05
Wind_Speed
4 6 2 3 4 5 3 3 5 5 9 3 6 8 17 7 9 9 11 13 15 19 16 12 13 10 12 9 5 9 11 8 9 5 3 2 4 2 3 5 7 6 6 7
7 3 2 4 4 4 4 4 7 7 5 3 3 9 13 3 9 17 15 14 17 12 11 13 13 14 14 12 16 13 14 12 10 7 3 3 3 2 2 2 4 5 7 7
4 4 6 2 1 1 4 5 4 6 6 4 4 9 5 5 4 6 9 10 12 16 16 14 15 15 14 18 14 11 12 13 11 9 5 3 2 2 2 1 2 4 5 6
5 4 2 3 5 4 3 6 4 3 4 2 3 6 6 6 4 4 3 6 6 10 9 11 13 13 17 17 15 12 12 13 10 11 9 7 6 5 4 4 3 3 5 5
8 2 3 4 6 5 9 2 1 2 2 2 4 4 8 7 9 9 6 7 9 9 12 13 15 14 12 12 12 10 8 10 9 11 10 9 5 4 3 2 4 4 4 5
8 3 4 8 4 6 2 1 5 4 3 4 3 4 7 5 8 9 6 6 4 6 8 8 8 8 8 7 6 7 9 9 9 10 9 10 10 7 5 4 4 4 4 5
5 4 3 3 1 3 6 7 5 7 7 5 2 3 8 8 9 6 9 10 5 8 9 10 9 8 7 6 3 7 8 4 4 7 9 10 9 8 9 7 6 5 4 4
1 7 4 1 4 6 3 7 7 2 1 6 3 1 5 5 9 9 6 4 7 10 10 11 10 10 9 13 11 10 11 9 13 10 9 9 8 6 6 6 5 5 5 6
3 4 3 5 3 3 3 4 4 7 3 2 3 3 5 5 8 8 5 8 10 11 11 11 9 12 11 12 17 17 14 12 10 15 8 8 8 7 7 7 7 6 6 6
5 2 3 5 3 8 7 5 5 5 1 3 5 4 6 2 4 7 6 6 6 7 9 7 8 8 7 8 2 9 12 13 14 11 10 11 11 8 6 4 7 7 5 7
4 4 6 4 6 2 4 4 7 6 4 5 2 7 5 7 3 5 6 2 5 7 6 4 7 6 6 7 7 2 6 9 9 8 7 8 8 7 6 8 6 5 5 8
0 6 3 2 4 3 2 4 5 6 4 1 3 7 2 4 2 6 7 7 6 4 5 3 6 7 8 7 6 6 6 2 6 8 9 9 7 5 8 8 5 7 8 6
5 2 3 5 7 4 4 1 6 6 3 3 4 7 5 6 5 2 3 6 6 8 9 6 7 6 6 6 6 5 6 8 6 6 1 4 5 8 9 9 9 8 8 7
8 4 6 7 5 3 3 2 3 6 4 3 6 7 5 7 8 4 2 2 4 4 4 2 4 3 4 4 3 6 8 7 1 4 6 1 9 10 8 7 8 9 8 7
6 3 2 2 2 0 2 3 4 5 6 7 7 6 5 6 7 4 3 5 6 7 7 6 4 6 5 6 6 5 5 6 2 5 3 8 11 8 8 9 10 10 10 9
3 3 2 2 2 4 4 6 7 3 3 4 3 1 3 5 3 9 7 7 7 6 7 8 7 7 8 7 6 4 5 6 2 3 5 7 7 8 11 8 9 9 10 10
2 7 4 5 3 2 4 5 3 3 2 3 5 2 2 6 7 6 6 5 5 5 6 8 6 6 6 6 5 6 5 3 4 1 3 7 7 9 11 10 9 9 11 9
5 5 3 3 3 3 6 5 3 5 2 3 5 4 3 1 2 4 3 3 5 6 7 8 7 7 7 6 6 7 7 5 2 6 4 2 5 7 8 8 10 10 10 12
2 6 3 4 4 3 5 2 2 1 3 1 2 2 0 3 3 4 6 5 4 6 7 6 7 7 7 7 7 6 5 4 6 5 5 6 4 5 6 8 11 11 8 11
5 6 5 2 4 7 2 4 4 3 3 3 1 3 4 5 2 5 5 4 7 8 7 7 8 7 7 8 6 7 8 8 7 5 7 5 5 5 5 8 10 10 9 11
4 4 4 1 2 4 2 6 4 2 5 2 2 3 3 4 6 7 9 9 9 9 9 9 8 8 9 8 6 7 6 7 7 7 7 7 5 5 6 5 6 8 10 10
3 3 1 2 1 4 3 3 3 5 2 3 5 6 8 10 12 13 13 13 13 13 12 11 9 9 10 8 6 8 6 8 6 6 9 9 6 4 5 5 6 6 8 9
1 5 3 6 6 4 3 1 2 3 4 4 4 8 8 11 12 14 14 14 13 14 13 11 10 10 10 11 8 9 8 7 6 5 6 9 8 4 4 5 5 5 6 7
1 3 2 3 2 5 5 4 6 6 7 8 9 11 12 15 15 16 15 15 14 13 12 11 11 12 13 12 12 9 7 7 5 7 7 7 6 7 4 5 4 5 6 6
4 2 2 3 6 5 5 6 7 9 9 11 14 15 17 17 18 17 16 16 15 15 13 13 12 12 13 12 11 10 8 7 8 6 6 7 7 7 5 6 4 4 7 8
4 5 4 6 8 5 8 7 7 8 11 14 14 16 17 16 18 18 17 16 15 15 14 12 13 12 14 13 13 10 8 8 9 8 6 6 6 5 5 6 6 6 11 13
Wind_Direction
8 46 239 264 207 215 244 212 252 258 267 187 244 269 276 193 212 200 195 196 204 213 210 203 205 190 183 170 125 172 175 170 166 159 156 187 211 188 205 200 210 191 193 192
14 274 265 235 212 205 213 249 277 293 254 121 313 270 266 208 220 214 202 202 210 208 193 196 195 198 172 150 206 178 181 170 178 184 165 165 163 195 172 177 214 201 192 190
161 240 309 353 0 154 205 196 246 230 339 13 357 307 319 321 294 245 226 220 215 207 193 192 195 188 152 171 208 206 185 174 180 173 140 103 101 76 118 204 214 202 196 185
251 285 260 328 289 151 301 209 244 275 58 272 52 277 307 337 14 31 180 218 241 229 192 189 188 181 180 192 196 194 177 171 178 173 181 174 173 178 188 185 165 189 198 200
250 241 295 315 237 164 229 0 72 34 114 61 1 67 278 353 355 345 347 202 208 201 184 188 188 188 172 181 189 185 167 170 178 183 193 191 180 180 148 162 180 181 184 190
240 272 226 218 237 185 72 64 46 59 72 34 302 110 306 339 297 299 327 330 318 168 145 146 149 145 140 148 150 179 171 179 170 184 200 197 201 181 161 174 196 194 192 198
318 248 267 222 251 29 75 52 351 6 11 228 352 68 242 295 317 304 318 308 64 131 132 139 125 88 76 86 137 111 84 28 302 224 198 210 207 200 196 182 191 188 191 202
109 345 16 20 208 150 87 129 146 215 252 277 303 17 270 318 320 314 322 309 70 78 78 87 110 117 143 173 163 152 142 217 226 229 216 218 206 200 205 186 182 199 211 217
157 277 312 32 5 101 163 55 165 103 7 46 266 308 324 349 336 341 20 69 84 98 137 145 155 185 205 166 170 167 181 205 243 234 197 211 219 204 204 194 193 189 202 213
212 323 7 298 23 29 103 158 44 12 161 289 306 269 229 203 283 318 28 72 104 144 157 174 202 228 19 36 132 176 186 199 199 215 213 212 196 207 210 201 200 204 202 206
131 116 293 29 27 322 357 23 61 111 120 171 227 270 213 186 245 326 337 49 169 191 197 192 242 36 43 45 46 107 175 200 199 196 205 216 203 192 195 224 195 197 199 189
83 132 114 126 296 288 122 129 105 112 262 43 140 278 318 166 337 330 315 343 323 234 266 339 10 33 34 35 26 13 356 224 190 199 195 213 197 200 205 203 195 186 210 196
183 22 54 8 354 348 68 123 116 112 97 201 142 264 68 29 343 319 302 349 346 329 344 12 31 28 358 350 344 316 306 284 271 150 163 290 222 197 198 203 195 183 200 193
90 105 148 191 211 162 171 205 93 112 112 193 231 278 345 348 283 229 126 41 339 332 335 39 349 338 346 8 333 310 316 279 267 82 153 285 276 250 211 185 200 193 194 191
83 133 159 207 219 240 235 222 184 181 186 165 241 213 303 316 273 237 103 31 1 2 7 6 346 339 337 326 335 333 312 295 180 226 99 191 283 242 227 184 194 203 189 196
17 187 134 291 193 196 254 237 248 245 120 278 271 197 327 339 63 62 51 49 23 1 345 343 332 328 325 319 327 348 8 349 78 158 272 229 239 220 230 210 199 198 197 195
121 135 116 241 16 7 308 254 199 148 97 193 201 183 32 26 43 35 35 38 30 348 336 326 327 311 317 328 322 338 343 353 2 254 227 273 249 226 220 218 200 200 203 192
132 99 91 194 42 236 254 330 165 112 73 103 97 96 95 217 287 333 338 360 340 322 313 305 302 316 323 321 330 327 342 352 2 319 326 313 259 241 235 220 228 203 199 201
94 118 105 149 183 303 308 322 27 358 253 107 64 10 178 325 184 255 223 221 223 240 250 252 281 288 297 301 312 303 321 338 325 316 308 317 322 269 241 231 234 235 204 204
64 74 114 130 161 211 234 304 8 138 272 6 10 332 335 352 259 248 215 230 259 258 256 266 265 270 277 283 308 330 328 334 325 322 307 298 297 290 270 253 244 236 223 225
6 8 112 146 195 285 273 287 283 160 236 330 334 277 277 268 218 270 285 270 235 229 240 253 258 253 251 252 252 259 282 292 281 295 295 282 271 279 279 281 256 241 237 232
151 108 215 98 91 270 332 343 44 214 240 263 275 268 267 268 281 286 283 278 280 278 277 266 260 263 270 261 248 264 258 262 276 286 300 284 269 280 292 294 279 249 242 235
342 175 192 166 216 242 285 257 287 184 218 259 241 273 259 272 273 275 277 278 272 264 266 263 252 258 264 264 244 251 250 260 276 288 276 281 281 270 275 276 285 276 238 222
331 146 134 43 258 232 246 276 240 229 237 267 269 269 273 273 276 277 280 282 282 277 269 262 261 261 263 259 255 237 248 250 234 264 278 281 275 278 265 258 248 265 256 223
210 70 158 275 284 291 279 221 240 252 253 269 270 264 266 272 274 273 275 274 276 275 273 269 265 259 259 261 255 250 245 235 239 246 262 274 271 260 255 250 239 241 257 203
184 189 161 230 234 194 243 245 248 253 261 265 263 271 267 261 264 271 271 272 276 275 273 267 262 257 259 259 257 249 240 244 243 254 253 249 260 259 248 252 257 191 236 231